Погода в Лоо

Великобритания     50°21′22″N   4°27′06″W
темп.,
°C
ветер,
м/с
пор.,
м/с
влажн.,
%
обл.,
%
осадки,
мм/ч
давл.,
гПа
погр.,
м
14 августа, вс
вс1401:00+21ссв4458100 0.3 100934
04:00+21ссв4458100 0.0 100736
07:00+22с5755100 0.0 100767
10:00+23всв2254100 0.0 1007117
13:00+22юв4566100 0.0 1006152
16:00+21ююв3481100 0.0 1006121
19:00+21всв22765 0.0 100468
22:00+21сз22695 0.0 100415
15 августа, пн
пн1501:00+20сз3474100 0.0 100471
04:00+20сз4782100 0.0 1003175
07:00+20зсз2382100 0.0 100358
10:00+21з3477100 0.1 1004157
13:00+21ююз567541 0.5 1004326
16:00+20юз78795 0.1 1003437
19:00+20юз7779100 0.1 1003293
22:00+18сз4587100 2.2 1004169
16 августа, вт
вт1601:00+19зсз1280100 3.1 100453
04:00+19з227889 0.4 1004110
07:00+18зюз2282100 0.7 1004172
10:00+18ю3384100 1.3 1005191
13:00+18юз1182100 1.8 1007232
16:00+17сз4589100 2.9 1008319
19:00+17с7988100 5.3 1009442
22:00+18с8118779 0.2 1010535
17 августа, ср
ср1701:00+17с7108866 0.6 1011392
04:00+17ссв679030 0.1 1010266
07:00+17св9118870 0.2 1012554
10:00+18св9108078 0.0 1014705
13:00+20всв787478 0.0 1015829
16:00+21ссв5666100 0.1 1015294
19:00+20ссв8107095 0.1 1016440
22:00+19ссв697510 0.0 1018519
18 августа, чт
чт1801:00+17ссв5781100 0.0 1019342
04:00+16ссв5683100 0.0 1018238
07:00+16ссв5681100 0.0 1019217
10:00+18св227019 0.0 1020318
13:00+19ююз446867 0.0 1019420
16:00+20юз6771100 0.0 1019555
19:00+18зсз6877100 0.0 1019483
22:00+18з5781100 0.0 1019375